Location: Airlie Beach - Cannonvale QLD, Australia
(20.2768°S, 148.7558°E)
Time: 23:29:57
(UTC+10:00)

Hubble Space Telescope - Pass Details

Date: 23 May 2026
Orbit: 473 x 475 km, 28.5° (Epoch: 5 June)

Event Time Altitude Azimuth Distance (km) Brightness Sun altitude
Rises 18:17:41 0° 252° (WSW) 2,514 5.1 -10.5°
Reaches altitude 10° 18:20:13 10° 236° (SW) 1,637 3.8 -11.1°
Maximum altitude 18:23:15 23° 182° (S) 1,060 2.1 -11.8°
Enters shadow 18:25:18 15° 140° (SE) 1,356 2.3 -12.2°
